Timeline UpdatesTrip UpdatesNews PostsPvt PostsTravel TipsAdmin PostsConv PostsFollowed PostsChat RequestsBlog PostsPNR Posts

Disclaimer
Search
 
 
Thu Apr 17, 2014 18:02:41 ISTHomeTrainsΣChainsAtlasPNRForumGalleryNewsFAQTripsMembersLoginFeedback
Latest...
.
Thu Nov 07, 2013 (06:56PM)
⇐ Return Journey: Train# 12288

12287/Kochuveli - Dehradun SF Express

Mar 05 2014 (1:41PM)
Change Departure Station:
Change Arrival Station:
Post a Train Travel TipPost a Train Travel Tip **new
Post a Comment/Question/Picture/VideoPost a Comment/Question/Picture/Video
Pantry/Catering
✕ NO Pantry Car
✓ Catering Avbl
RSA - Rake Sharing
Rake/Coach Composition
LOCO, SLR, GS, GS, GS, S5, S4, S3, S2, S1, B1, GS,; GS, GS, GS, SLR
Loco
RTM WDM3A(KCVL-BRC) BRC WAP 4E (BRC-NZM) TKD WDM 3A (NZM-DDN)
News    PNR    Forum    Time-Table    Availability    Fare Chart    Map    Arr/Dep History    Trips    Gallery    ΣChains    X/O    Timeline    
Travel Time: 45h 30m    12 halts    Distance: 2531 km    Avg Speed: 55 km/hr
Type: SuperFast
Zone: SR/Southern
Departs @ 20:40 (Avg on time)
Platform# 1
     F 
Mangalore Junction/MAJN 
Arrives @ 18:10 +2 nights (Avg 1h 22m late)
Platform# 1
S      
Dehradun/DDN 

12 halts. 338 intermediate Stations between Mangalore Junction and Dehradun

Hide intermediate Stations  Show Old Time-Table

#CodeStation NameX/OArrivesAvgDepartsAvgHaltPFDay#KmSpeedElevZoneAddress
1KCVLTrivandrum Kochuveli (3)  -08:50+071-628.26311mSRTrivandrum 695021, Kerala
1.1VELITrivandrum Veli (1)X  08:53-08:53-  1-625.0 639mSRTrivandrum, Kerala
1.2KZKKazhakkuttam (3)  08:56-08:56-  1-621.9 6320mSRKulathoor ► Kazhakootam Road Kazhakootam PO Thiruvananthapuram, Kerala
1.3KXPKaniyapuram (2)X  09:00-09:00-  1-617.9 6314mSRTrivandrum, Kerala
1.4MQUMurukkampuzha (2)  09:04-09:04-  1-613.9 6318mSRMurukkumpuzha, Kerala
1.5PGZPerunguzhi (2)X  09:07-09:07-  1-610.6 6318mSRPerunguzhi Railway Station, Kerala
1.6CRYChirayinkeezhu (2)  09:11-09:11-  1-606.5 6319mSRChirayinkeezhu, Kerala
1.7KVUKadakavur (3)  09:14-09:14-  1-603.4 6320mSRKadakkavoor, Kerala
1.8AMYAkathumuri (2)X  09:16-09:16-  1-600.8 6313mSRAkathumuri Rd, Kerala
1.9VAKVarkala Sivagiri (3)  09:22-09:22-  1-594.3 6352mSREdava Kappil Road, Kerala
1.10EVAEdavai (2)  09:26-09:26-  1-590.4 6328mSRThiruvananthapuram, Kerala
1.11KFIKappil (2)  09:29-09:29-  1-587.6 6320mSRKappil, Kerala
1.12PVUParavur (3)  09:33-09:33-  1-583.0 6318mSRParavoor, Kerala
1.13MYYMayyanad (2)  09:37-09:37-  1-579.5 6321mSRMayyanad, Kerala
1.14IRPEravipuram (2)  09:41-09:41-  1-575.2 6320mSRKollam, Kerala
2QLNKollam Junction (6)X  09:45+009:50+05m21-570.67616mSRKollam 0474-2746194, Kerala
2.1PRNDPerinad (2)  09:57-09:57-  1-561.5 7624mSRPerinad Kollam Dist, Kerala
2.2MQOMunroturuttu (2)  10:03-10:03-  1-554.1 760mSRSasthamkotta, Kerala
2.3STKTSasthamkotta (2)  10:05-10:05-  1-551.2 760mSRKollam Dist, Kerala
2.4KPYKarunagappalli (2)  10:11-10:11-  1-543.5 7612mSRKollam Dist, Kerala
2.5OCROchira (2)  10:17-10:17-  1-535.8 7614mSRClappana, Kerala
2.6KYJKayamkulam Junction (5)X  10:22-10:22-  1-529.8 7611mSRAlappuzha Ph;0479-2442042, Kerala
2.7MVLKMavelikara (3)X  10:28-10:28-  1-522.1 7613mSRMavelikkara Ph: 0479-2302249, Kerala
2.8CYNCheriyanad (2)O  10:33-10:33-  1-515.9 7621mSRCherianad, Kerala
3CNGRChengannur (3)O  10:38+010:40+02m31-509.6466mSRPh: 0479-2452340, Kerala
3.1TRVLTiruvalla (2)10:52-10:52-  1-500.5 4627mSRPh: 0469-2601314, Kerala
3.2CGYChanganassery (3)XO  11:02-11:02-  1-492.7 4611mSRPh: 0481- 2420108, Kerala
3.3CGVChingavanamX  11:16-11:16-  1-482.2 4623mSRChingavanam, Kerala
4KTYMKottayam (3)X  11:25+011:30+05m--1-474.84515mSRTel: 0481 2563535, Kerala
4.1KFQKumaranallur (1)X  11:35-11:35-  1-471.4 4511mSRKottayam, Kerala
4.2ETMEttumanur (1)  11:44-11:44-  1-464.3 4528mSRKottayam, Kerala
4.3KRPPKuruppanthara (1)  11:55-11:55-  1-456.4 4519mSRKottayam, Kerala
4.4KDTYKaduturutti Halt (1)  11:59-11:59-  1-453.3 4524mSRKaduthuruthi, Kerala
4.5VARDVaikom Road (1)  12:03-12:03-  1-449.8 453mSRKaduthuruthi, Kerala
4.6PVRDPiravom Road  12:12-12:12-  1-443.6 4512mSRKottayam, Kerala
4.7KPTMKanjiramittam (1)X  12:20-12:20-  1-437.2 4511mSRKanjiramattom, Kerala
4.8MNTTMulanturutti (2)  12:27-12:27-  1-431.9 4517mSRErnakualm-682314, Kerala
4.9KFEChottanikkara Road (1)  12:32-12:32-  1-428.5 4511mSRErnakulam, Kerala
4.10TRTRThrippunithura (2)  12:37-12:37-  1-424.5 455mSRErnakulam, Kerala
4.11ERSDErnakulam D Cabin  12:46-12:46-  1-417.8 454mSRErnakulam, Kerala
5ERNErnakulam Town (North) (2)X  12:50+513:00+010m11-414.9569mSRTel: 0484 2395198, Kerala
5.1IPLIdappally (2)  13:07-13:07-  1-408.8 569mSR0484- 2344202, Kerala
5.2KLMRKalamassery (2)X  13:12-13:12-  1-404.1 569mSRErnakulam, Kerala
5.3AWYAluva (3)X  13:18-13:18-  1-398.0 5612mSRPh: 0484-2624141, Kerala
5.4CWRChovvara (2)  13:22-13:22-  1-394.8 5612mSRAluva, Kerala
5.5AFKAngamaly for Kalady (3)  13:28-13:28-  1-388.8 5616mSRPhone: 0484-2452340, Kerala
5.6KUCKarukkutty (2)  13:33-13:33-  1-384.1 5621mSRErnakulam District, Kerala
5.7KRANKoratti Angadi (2)  13:38-13:38-  1-379.5 5614mSRKoratty, Kerala
5.8DINRDivine Nagar (2)  13:42-13:42-  1-375.8 5616mSRThrissur, Kerala
5.9CKIChalakkudy (3)  13:44-13:44-  1-373.6 569mSRPh: 0480- 2701368, Kerala
5.10IJKIrinjalakkuda (2)  13:51-13:51-  1-367.2 5618mSRKalletumkara, Kerala
5.11NYINellayi (2)  13:58-13:58-  1-360.8 5613mSRAnandapuram Nellayi Rd, Kerala
5.12PUKPudukkad (2)X  14:02-14:02-  1-357.0 5611mSRPudukad, Kerala
5.13OLROllur (2)X  14:10-14:10-  1-350.0 5613mSRThrissur, Kerala
6TCRThrissur (4)  14:17+014:20+03m21-343.4406mSRThrissur Tel: 0487 2423150, Kerala
6.1PNQThrissur Punkunnam (2)X  14:23-14:23-  1-341.2 4012mSRThrissur, Kerala
6.2MGKMulangunnathukavu (3)X  14:34-14:34-  1-334.1 4027mSRThrissur 0487 2200229, Kerala
6.3WKIWadakkanchery (2)  14:45-14:45-  1-327.0 4040mSRWadackanchery, Kerala
6.4MUCMullurkara (2)X  14:58-14:58-  1-318.4 4047mSRChittanda - Thalasseri Rd, Kerala
6.5VTKVallathol Nagar (3)  15:04-15:04-  1-314.4 4045mSRThrissur Dist, Kerala
6.6BPZABharathapuzha Halt  15:09-15:09-  1-311.4 4022mSRShoranur, Kerala
7SRRShoranur Junction (7)X  15:10+015:15+05m--1-310.56126mSRShoranur ph.no 0466-2222913, Kerala
7.1SRRBShoranur B-CabinX  15:15-15:15-  1-310.1 6128mSRShoranur, Kerala
7.2KRKDKarakad (2)X  15:21-15:21-  1-304.8 6131mSRKondayur Rd, Kerala
7.3PTBPattambi (2)  15:26-15:26-  1-298.9 6121mSRPattambi, Kerala
7.4KODNKodumunda  15:31-15:31-  1-294.2 6119mSRThrithala, Kerala
7.5PUMPallippuram  15:35-15:35-  1-289.8 615mSRPalakkad, Kerala
7.6PEUPerssannur  15:41-15:41-  1-284.5 6116mSRKoodallur, Kerala
7.7KTUKuttippuram (2)  15:45-15:45-  1-280.5 6117mSRKuttippuram, Kerala
7.8TUATirunnavaya (2)X  15:51-15:51-  1-274.0 6110mSRThirunavaya, Kerala
7.9TIRTirur (3)  15:59-15:59-  1-265.4 619mSRTel: 0494 2422240, Kerala
7.10TATanur (3)  16:07-16:07-  1-257.4 6111mSRMalappuram, Kerala
7.11PGIParappangadi (2)  16:15-16:15-  1-249.3 6119mSRParappanangadi, Kerala
7.12VLIVallikunnu (2)X  16:20-16:20-  1-244.3 6113mSRVallikkunnu, Kerala
7.13KNKadalundi (2)  16:26-16:26-  1-238.9 618mSRKozhikode district, Kerala
7.14FKFerok (2)O  16:30-16:30-  1-234.1 6119mSRFeroke, Kerala
7.15KULKallayi Kozhikode South (2)  16:38-16:38-  1-226.0 610mSRCalicut, Kerala
8CLTKozhikode Main (4)  16:40+016:45+05m41-224.26311mSRCalicut Tel: 0495 2701234, Kerala
8.1VLLVellayil (2)X  16:47-16:47-  1-222.3 6315mSRCalicut, Kerala
8.2WHWest Hill (2)  16:49-16:49-  1-219.6 6310mSRCalicut, Kerala
8.3ETRElattur (3)X  16:56-16:56-  1-212.4 6313mSRKozhikode district, Kerala
8.4CMCChemancheri (2)X  17:03-17:03-  1-205.2 6311mSRDist. Kozhikode, Kerala
8.5QLDKoyilandy (3)  17:08-17:08-  1-199.8 6311mSRQuilandi, Kerala
8.6VEKVellarakkad  17:13-17:13-  1-194.4 6317mSRVellarakkad Railway Station, Kerala
8.7TKTTikkotti (2)  17:17-17:17-  1-190.6 6314mSRThikkodi, Kerala
8.8PYOLPayyoli (2)  17:20-17:20-  1-187.6 6312mSRPayyoli, Kerala
8.9IGLIringal (2)  17:26-17:26-  1-181.7 6324mSRKochi - Panavel Rd, Kerala
8.10BDJVadakara (2)  17:29-17:29-  1-177.9 6311mSRCalicut / Station Ph No : 0496-2524254, Kerala
8.11NAUNadapuram RoadX  17:34-17:34-  1-172.5 6318mSRMadappallly, Kerala
8.12MUKEMukkali  17:38-17:38-  1-168.8 6318mSRChombala, Kerala
8.13MAHEMahe (2)  17:41-17:41-  1-165.0 6316mSRMahe, Puducherry
8.14JGEJagannath Temple Gate (1)  17:48-17:48-  1-158.2 637mSRKannur District, Kerala
8.15TLYThalassery (2)X  17:50-17:50-  1-155.8 639mSRKannur, Kerala
8.16DMDDharmadam (1)  17:55-17:55-  1-151.3 6314mSRKannur District, Kerala
8.17ETKEdakkad  17:58-17:58-  1-147.5 6312mSRNH 17, Kerala
8.18CSKannur South  18:07-18:07-  1-138.8 638mSRKannur, Kerala
9CANKannur Main (3)  18:10+018:15+05m11-135.18114mSRKannur Tel: 0497 2705555, Kerala
9.1CQLChirakkal (2)  18:19-18:19-  1-130.3 8127mSRKannur district, Kerala
9.2VAPMValapattanam (2)X  18:20-18:20-  1-128.2 818mSRKannur District, Kerala
9.3PPNSPappinisseri (2)  18:21-18:21-  1-126.7 818mSRKannur District, Kerala
9.4KPQKannapuram (2)  18:26-18:26-  1-120.7 819mSRKannur District, Kerala
9.5PAZPayangadiX  18:31-18:31-  1-113.1 8112mSRKannur District, Kerala
9.6ELMEzhimala  18:38-18:38-  1-104.3 8115mSRKannur District, Kerala
9.7PAYPayyanur (3)X  18:40-18:40-  1-101.5 810mSRKannur District, Kerala
9.8TKQTrikkarippur  18:45-18:45-  1-95.3 8113mSRKasargod district, Kerala
9.9CDRAChandera  18:48-18:48-  1-90.9 8117mSRKasaragod, Kerala
9.10CHVCharvattur (3)  18:51-18:51-  1-86.7 8114mSRKasaragod district, Kerala
9.11NLENileshwar (2)X  18:55-18:55-  1-81.4 8112mSRNileswaram, Kerala
9.12KZEKanhangad (3)  19:02-19:02-  1-72.2 8115mSRKanhangad, Kerala
9.13BFRBekal Fort (2)  19:08-19:08-  1-63.4 8111mSRPallikere, Kerala
9.14KQKKottikkulam (2)  19:12-19:12-  1-58.5 8125mSRBekal, Kerala
9.15KLADKalanad HaltX  19:17-19:17-  1-52.0 813mSRKasaragod, Kerala
10KGQKasaragod (3)  19:19+019:20+01m--1-49.14218mSRTel: 04994 220800, Kerala
10.1KMQKumbala (2)  19:37-19:37-  1-36.9 4223mSRKumbla, Kerala
10.2UAAUppala (2)X  19:51-19:51-  1-27.1 4216mSRKasaragod District, Kerala
10.3MJSManjeshwar (3)O  20:01-20:01-  1-20.2 4212mSRManjeshwar, Kerala
10.4ULLUllal (2)  20:16-20:16-  1-9.9 4226mSRSomeshwar, Karnataka
10.5TKOTTokkottu (1)  20:21-20:21-  1-6.4 428mSRTokkottu, Karnataka
11MAJN»Mangalore Junction (3)»X  20:30+020:40+010m110.05824mSRMangalore 575001, Karnataka
11.1TOKThokur (1)  20:57-20:57-  116.4 589mKRTel. 0824-2408605 Mangalore, Karnataka
11.2SLSurathkal (1)  21:01-21:01-  120.5 5822mKRSurathkal, Karnataka
11.3MULKMulki (1)  21:11-21:11-  129.7 5821mKRMulki, Karnataka
11.4NANDNandikoor (1)  21:18-21:18-  137.2 587mKRUdupi Dist, Karnataka
11.5PDDPadubidri (1)  21:27-21:27-  146.2 5820mKR, Karnataka
11.6INJInnanje  21:34-21:34-  152.9 5822mKRMoodabettu, Karnataka
12UDUdupi (2)21:44+721:46+42m--162.47118mKRUdupi, Karnataka
12.1BKJBarkur (1)  22:00-22:00-  178.7 7122mKRUdupi District, Karnataka
12.2KUDAKundapura (2)  22:13-22:13-  194.4 7113mKRBasrur, Karnataka
12.3SENSenapura (1)X  22:25-22:25-  1108.2 7122mKRUdupi District, Karnataka
12.4BIJRBijoor (1)  22:37-22:37-  1121.9 719mKRUdupi Dist, Karnataka
12.5BYNRByndoor Mookambika Road (1)  22:42-22:42-  1128.0 7110mKRUdupi Dist. 576214, Karnataka
12.6SHMIShiroor  22:48-22:48-  1135.9 7124mKRTel. 08254-253192, Karnataka
12.7BTJLBhatkal (2)  22:55-22:55-  1143.1 7116mKRBhatkal, Karnataka
12.8CTTPChitrapur Halt (1)  23:00-23:00-  1149.3 7114mKRMavalli, Karnataka
12.9MRDWMurdeshwar (2)  23:07-23:07-  1157.8 7128mKRMurudeshwara, Karnataka
12.10MANKManki Halt  23:14-23:14-  1166.3 7127mKRTel. 08387-257333, Karnataka
12.11HNAHonnavar (2)  23:29-23:29-  1184.1 714mKRUttara Kannada Dist, Karnataka
12.12KTKumta (2)X  23:41-23:41-  1197.9 7120mKRKumta - 581362, Karnataka
12.13GOKGokarna Road (1)  23:57-23:57-  1216.9 7113mKRUttara Kannada, Karnataka
12.14ANKLAnkola (1)  00:04-00:04-  2224.9 7117mKRAnkola, Karnataka
12.15HAAHarwadaX  00:16-00:16-  2239.2 717mKRTel. 08388-248377, Karnataka
12.16KAWRKarwar (2)  00:28-00:28-  2253.0 7114mKRKarwar, Karnataka
12.17ATAsnoti (1)  00:34-00:34-  2260.7 716mKRAsnoti - 581317, Karnataka
12.18LOLLoliem (1)  00:43-00:43-  2270.3 7126mKRCanacona Taluk, Goa
12.19CNOCanacona (1)  00:51-00:51-  2280.1 7129mKRPh:-0832-2643644., Goa
12.20BLLIBalli  01:05-01:05-  2296.7 7140mKRBalli - 403703, Goa
13MAOMadgaon Junction (3)X  01:20+001:30+010m12314.35511mKRMadgaon 403601, Goa
13.1SRVXSuravali (1)  01:34-01:34-  2317.8 5517mKRMargao, Goa
13.2MJOMajorda  01:37-01:37-  2320.7 5518mKRSouth Goa 403713, Goa
13.3VENVernaX  01:42-01:42-  2325.6 559mKRDist. South Goa 403722, Goa
13.4KRMIKarmali (2)  02:00-02:00-  2341.8 557mKRNorth Goa 403402, Goa
13.5THVMThivim (2)X  02:19-02:19-  2359.2 5521mKRThivim - 403502, Goa
13.6PERNPernem (2)  02:31-02:31-  2370.1 5517mKRPernem - 403512, Goa
13.7MADRMadure (1)  02:43-02:43-  2380.7 5529mKRMadure - 416514, Maharashtra
13.8SWVSawantwadi Road (2)  02:52-02:52-  2388.6 5540mKRDist. Sindhudurg, Maharashtra
13.9ZARPZarap (2)  03:03-03:03-  2399.2 5539mKRZarap - 416510, Maharashtra
13.10KUDLKudal (2)  03:15-03:15-  2409.4 5526mKRKudal - 416520, Maharashtra
13.11SNDDSindhudurg (2)  03:26-03:26-  2420.1 5535mKRSindhudurg - 416534, Maharashtra
13.12KKWKankavali (2)X  03:46-03:46-  2437.7 5545mKRKankavli - 416602, Maharashtra
13.13NANNandgaon Road (1)X  04:03-04:03-  2453.2 55114mKRNandagaon - 416601, Maharashtra
13.14VBWVaibhavwadi Road (1)X  04:20-04:20-  2468.8 5580mKRVaibhavwadi - 416810, Maharashtra
13.15RAJPRajapur Road (1)  04:38-04:38-  2485.4 5541mKRRajapur - 416702, Maharashtra
13.16VIDVilavade (1)  04:56-04:56-  2502.1 5560mKRVilavade - 415643, Maharashtra
13.17ADVIAdavali (1)X  05:14-05:14-  2517.7 5572mKRAdavali - 416712, Maharashtra
13.18NIVNivasarX  05:31-05:31-  2533.8 5541mKRNivsar - 415803, Maharashtra
13.19RNRatnagiri (3)  05:48-05:48-  2549.1 55129mKRRatnagiri 415612, Maharashtra
13.20BOKEBhoke (1)  05:55-05:55-  2555.8 55125mKRBhoke - 415639, Maharashtra
13.21UKCUkshi (1)  06:09-06:09-  2568.3 5571mKRDist. Ratnagiri, Maharashtra
13.22SGRSangameshwar Road (2)X  06:24-06:24-  2581.9 5537mKRSangameshwar - 415611, Maharashtra
13.23AVRDAravali Road (1)  06:47-06:47-  2602.3 55102mKRAravali - 415608, Maharashtra
13.24SVXSavarda (1)  06:51-06:51-  2606.0 55103mKRSavarda - 415606, Maharashtra
13.25KMAHKamathe (1)  07:00-07:00-  2614.8 5555mKRKamathe - 415605, Maharashtra
13.26CHIChiplun (2)  07:11-07:11-  2624.5 5512mKRChiplun, Maharashtra
13.27ANOAnjani (1)  07:29-07:29-  2640.7 5524mKRAnjani, Maharashtra
13.28KHEDKhed (2)X  07:44-07:44-  2654.1 5527mKRKhed, Maharashtra
13.29DWVDiwan Khavati (1)  08:03-08:03-  2671.8 5599mKRDiwan Khavati - 415640, Maharashtra
13.30VINHVinhere (1)  08:14-08:14-  2681.7 5588mKRRaigad, Maharashtra
13.31KFDKaranjadi (2)  08:23-08:23-  2689.7 5555mKRKaranjadi - 402301, Maharashtra
13.32SAPESape Wamne (1)XO  08:32-08:32-  2698.0 5516mKRSH 70, Maharashtra
13.33VEERVeer (1)  08:40-08:40-  2705.5 556mKRVeer, Maharashtra
13.34GNOGoregaon Road Halt (1)  08:47-08:47-  2711.8 5513mKRRaigad, Maharashtra
13.35MNIMangaon (2)  08:58-08:58-  2722.1 5512mKRMangaon - 402104, Maharashtra
13.36INPIndapur (1)  09:06-09:06-  2728.6 5520mKRIndapur, Maharashtra
13.37KOLKolad (1)X  09:17-09:17-  2739.5 5517mKRKolad, Maharashtra
13.38ROHARoha (3)  09:32-09:32-  2752.5 5511mCRRoha, Maharashtra
13.39NIDINidi  09:36-09:36-  2756.6 5512mCRRoha, Maharashtra
13.40NGTNNagothane (3)X  09:46-09:46-  2765.6 5521mCRRaigad, Maharashtra
13.41KASUKasu (1)X  10:01-10:01-  2778.9 557mCRKasu, Maharashtra
13.42PENPen  10:16-10:16-  2793.0 5513mCRPen, Maharashtra
13.43HMRRHamarapur (1)  10:27-10:27-  2803.2 556mCRRaigad, Maharashtra
13.44JITEJiteX  10:33-10:33-  2808.2 5518mCRJite, Maharashtra
13.45APTAApta (2)  10:38-10:38-  2813.0 559mCRRaigad, Maharashtra
13.46RSYIRasayani (2)  10:42-10:42-  2816.4 5522mCRRasayani, Maharashtra
13.47SMNESomatne (2)  10:49-10:49-  2823.0 5512mCRKolkhe Village, Maharashtra
14PNVLPanvel Junction (7)  10:55+011:00+05m72828.23710mCRPanvel, Maharashtra
14.1KLMCKalamboli (3)  11:08-11:08-  2833.3 374mCRNavi Mumbai., Maharashtra
14.2KLMGKalamboli Goods (2)  11:09-11:09-  2833.9 374mCRNavi Mumbai, Maharashtra
14.3NVRDNavade Road (2)  11:12-11:12-  2835.7 376mCRGhotkamp Koyana vele., Maharashtra
14.4TPNDTaloje Panchnand (3)  11:17-11:17-  2839.1 3710mCRNavi Mumbai, Maharashtra
14.5NIIJNilaje (3)  11:31-11:31-  2847.7 379mCRNilaje, Maharashtra
14.6DTVLDativli (2)X  11:38-11:38-  2851.9 377mCRKalyan Shilphata Rd, Maharashtra
14.7KOPRKopar (4)X  11:48-11:48-  2858.1 370mCRKopar, Maharashtra
14.8BIRDBhiwandi Road (4)  12:01-12:01-  2866.0 3726mCRBhiwandi, Maharashtra
14.9KHBVKharbav (4)X  12:14-12:14-  2874.2 378mCRThane, Maharashtra
14.10KARDKaman Road  12:27-12:27-  2882.4 3719mCRSection 2, Maharashtra
14.11JCNRJuchandra  12:37-12:37-  2888.0 374mCRNH 8, Maharashtra
15BSRVasai Road (7)  12:45+012:50+05m62893.3637mWRThane-401202, Maharashtra
15.1NSPNallasopara (4)X  12:54-12:54-  2897.5 635mWRNallasopara station Rd, Maharashtra
15.2VRVirar (8)X  12:58-12:58-  2901.7 636mWRThane, Maharashtra
15.3VTNVaitarna (2)  13:06-13:06-  2910.2 633mWRThane, Maharashtra
15.4SAHSaphale (2)X  13:13-13:13-  2918.0 638mWRThane, Maharashtra
15.5KLVKelve Road (3)O  13:20-13:20-  2924.4 6310mWRThane, Maharashtra
15.6PLGPalghar (3)  13:28-13:28-  2932.8 6319mWRPalghar, Maharashtra
15.7UOIUmroli (2)  13:34-13:34-  2939.2 638mWRBoisar, Maharashtra
15.8BORBoisar (3)  13:38-13:38-  2944.1 6317mWRBoisar Tel.no-02525-266626, Maharashtra
15.9VGNVangaon (3)X  13:47-13:47-  2953.5 6311mWRThane, Maharashtra
15.10DRDDahanu Road (5)  13:59-13:59-  2965.8 6312mWRDahanu, Maharashtra
15.11GVDGholvad (4)  14:09-14:09-  2977.0 6314mWRGholvad, Maharashtra
15.12BRRDBordi Road (2)  14:14-14:14-  2981.9 6317mWRBordi, Maharashtra
15.13UBRUmbargam Road (3)X  14:18-14:18-  2986.1 6330mWRUmbergaon, Gujarat
15.14SJNSanjan (3)  14:23-14:23-  2991.5 6322mWRSanjan, Gujarat
15.15BLDBhilad (3)  14:34-14:34-  21003.1 6333mWRBhilad, Gujarat
15.16KEBKarambeli (2)  14:39-14:39-  21007.9 6329mWRNational Highway 8, Gujarat
15.17VAPIVapi (3)X  14:45-14:45-  21014.3 6327mWRVapi, Gujarat
15.18BAGDBagwada (2)  14:51-14:51-  21021.1 6322mWRNH8, Gujarat
15.19UVDUdvada (3)  14:54-14:54-  21023.9 6318mWRUdvada, Gujarat
15.20PADPardi (3)  15:00-15:00-  21029.9 6319mWRValsad, Gujarat
15.21ATULAtul (3)X  15:03-15:03-  21033.9 6322mWRValsad, Gujarat
15.22BLValsad (3)X  15:10-15:10-  21040.6 6315mWRValsad, Gujarat
15.23DGIDungri (3)  15:18-15:18-  21049.5 6320mWRNH 8, Gujarat
15.24JRSJoravasan (2)  15:23-15:23-  21054.6 6315mWRJoravasan, Gujarat
15.25BIMBilimora Junction (4)  15:27-15:27-  21058.5 6311mWRBilimora, Gujarat
15.26AMLAmalsad (3)  15:32-15:32-  21064.1 6312mWRAmalsad, Gujarat
15.27ACLAncheli (2)  15:36-15:36-  21067.9 6320mWRNavsari, Gujarat
15.28VDHVedchha (3)  15:39-15:39-  21071.3 6313mWRNavsari, Gujarat
15.29HXRHansapore (2)  15:43-15:43-  21075.1 6315mWRHansapore, Gujarat
15.30GNSTGandhi Smriti (2)  15:44-15:44-  21076.7 6316mWRGandhi Smriti Navsari, Gujarat
15.31NVSNavsari (3)  15:47-15:47-  21079.7 6314mWRNavsari, Gujarat
15.32MRLMaroli (3)X  15:55-15:55-  21088.1 6315mWRMaroli, Gujarat
15.33SCHSachin (3)  16:01-16:01-  21094.8 6311mWRKansad Road Sachin, Gujarat
15.34BHETBhestan (2)X  16:07-16:07-  21100.5 6313mWRSurat, Gujarat
15.35UDNUdhna Junction (3)X  16:11-16:11-  21105.3 6316mWRUdhna 394210, Gujarat
16STSurat (4)  16:15+016:20+05m321109.37919mWRSurat 395001, Gujarat
16.1URNUtran (3)  16:23-16:23-  21113.2 7915mWRSurat, Gujarat
16.2KSEKosad (2)  16:25-16:25-  21116.4 7917mWRSurat, Gujarat
16.3GTXGothangam (2)  16:28-16:28-  21120.0 7919mWRAmroli Sayan Rd, Gujarat
16.4SYNSayan (3)  16:30-16:30-  21123.0 7921mWRSayan Satellite town, Gujarat
16.5KDSDKudsad (2)  16:36-16:36-  21130.1 7918mWRNH 8, Gujarat
16.6KIMKim (2)  16:38-16:38-  21132.9 7918mWRNH 8, Gujarat
16.7KSBKosamba Junction (3)  16:44-16:44-  21140.7 7930mWRKosamba, Gujarat
16.8HATHathuran (2)  16:47-16:47-  21145.1 7932mWRKosamba, Gujarat
16.9PAOPanoli (3)  16:50-16:50-  21148.9 7929mWRPanoli, Gujarat
16.10SNJLSanjali (2)X  16:53-16:53-  21153.2 7923mWRPanoli, Gujarat
16.11AKVAnkleshwar Junction (4)X  16:58-16:58-  21159.2 7919mWRAnkleshwar, Gujarat
16.12BHBharuch Junction (5)  17:05-17:05-  21168.6 7919mWRBharuch, Gujarat
16.13CVJChavaj (2)  17:09-17:09-  21173.6 7920mWRBharuch, Gujarat
16.14NIUNabipur (3)  17:14-17:14-  21180.6 7924mWRNabipur, Gujarat
16.15VREVarediya (4)X  17:19-17:19-  21187.4 7921mWRNH 8, Gujarat
16.16PLJPalej (4)  17:24-17:24-  21194.0 7929mWRPalej, Gujarat
16.17LKDLakodara (4)X  17:29-17:29-  21201.2 7926mWRNH 8, Gujarat
16.18MYGLMiyagam Karjan Junction NGX  17:35-17:35-  21209.2 790mWRKarjan, Gujarat
16.19MYGMiyagam Karjan (2)  17:35-17:35-  21209.3 7929mWRKarjan, Gujarat
16.20KSPRKashipura Sarar (2)  17:41-17:41-  21217.0 7926mWRGIDC Industrial Area, Gujarat
16.21ITAItola (4)X  17:44-17:44-  21220.8 7927mWRNational Highway 8, Gujarat
16.22VRMVarnama (2)  17:47-17:47-  21224.8 7928mWRVadodara, Gujarat
16.23MPRMakarpura (4)  17:51-17:51-  21230.4 7930mWRVadodara, Gujarat
16.24VSVishvamitri (4)  17:56-17:56-  21236.1 7930mWRVadodara, Gujarat
17BRCVadodara Junction (7)X  17:58+018:16+018m221239.16236mWRVadodara, Gujarat
17.1BRGYVadodara D CabinO  18:17-18:17-  21239.7 6236mWRVadodara, Gujarat
17.2BRGZVadodara E Cabin  18:22-18:22-  21245.7 6239mWRVadodara, Gujarat
17.3CYIChhayapuri (2)  18:23-18:23-  21246.8 6241mWRNE 1, Gujarat
17.4PIOPilol (2)  18:30-18:30-  21253.4 6244mWRManjusar, Gujarat
17.5AIRAlindra Road (2)  18:36-18:36-  21260.0 6245mWRAlindra, Gujarat
17.6SMLASamlaya Junction (3)X  18:42-18:42-  21265.7 6267mWRVadodara, Gujarat
17.7LANLotanaX  18:47-18:47-  21271.0 6278mWRSH 150, Gujarat
17.8CPNChampaner Road Junction  18:53-18:53-  21276.9 6278mWRPanchmahal, Gujarat
17.9BKRLBakrolX  18:58-18:58-  21282.9 6276mWRState Highway 5, Gujarat
17.10DRLDerol  19:05-19:05-  21289.4 6281mWRKalol, Gujarat
17.11KRSAKharsaliya (2)  19:17-19:17-  21302.1 62107mWRPanchmahal, Gujarat
17.12GDAGodhra Junction (3)  19:27-19:27-  21313.0 62122mWRGodhra, Gujarat
17.13KIZKansudhi  19:32-19:32-  21317.5 62138mWRGodhra, Gujarat
17.14CCLChanchelavX  19:38-19:38-  21324.4 62168mWRNH 59, Gujarat
17.15SATSant Road (2)  19:47-19:47-  21333.3 62169mWROrwara, Gujarat
17.16PPDPiplod Junction  19:58-19:58-  21345.2 62209mWRPiplod, Gujarat
17.17LMKLimkheda  20:06-20:06-  21353.1 62205mWRLimkheda, Gujarat
17.18MAMMangal Mahudi (2)X  20:14-20:14-  21361.8 62248mWRDabhada, Gujarat
17.19USRAUsra (2)  20:21-20:21-  21368.3 62299mWRMangal Mahudi, Gujarat
17.20JKTJekot  20:28-20:28-  21375.7 62345mWRDahod, Gujarat
17.21RETRentiaX  20:33-20:33-  21381.2 62342mWRDahod, Gujarat
17.22DHDDahod (3)  20:38-20:38-  21386.1 62313mWRDahod, Gujarat
17.23DHMADhamarda  20:43-20:43-  21391.0 62285mWRDahod, Gujarat
17.24BIOBordi (2)  20:48-20:48-  21396.7 62289mWRNational Highway 59, Gujarat
17.25ANASAnas (2)X  20:56-20:56-  21404.6 62288mWRMadhya Pradesh 389154 ?, Madhya Pradesh
17.26NRHNahargarh  21:04-21:04-  21413.4 62304mWRNahargarh, Madhya Pradesh
17.27MGNMeghnagar (3)  21:10-21:10-  21419.2 62317mWRJhabua, Madhya Pradesh
17.28THDRThandla Road (2)  21:18-21:18-  21427.2 62317mWRJhabua, Madhya Pradesh
17.29BJGBajrangarh (2)  21:24-21:24-  21434.1 62343mWRJhabua, Madhya Pradesh
17.30PCNPanch Pipila (2)XO  21:31-21:31-  21441.1 62369mWRSH 39A, Madhya Pradesh
17.31AGRAmargarh (2)  21:40-21:40-  21450.6 62410mWRSH 39A, Madhya Pradesh
17.32BMIBamnia (2)  21:44-21:44-  21454.7 62392mWRBamnia, Madhya Pradesh
17.33BOGBhairongarh (2)  21:50-21:50-  21460.7 62374mWRBhairongarh Railway Station, Madhya Pradesh
17.34RTIRaoti (2)X  22:02-22:02-  21472.6 62409mWRState Highway 39A, Madhya Pradesh
17.35BILDBildi (2)  22:08-22:08-  21479.7 62422mWRMadhya Pradesh, Madhya Pradesh
17.36MRNMorwani (2)  22:17-22:17-  21488.8 62459mWRDantoda, Madhya Pradesh
17.37DRRNDr. RK Nagar  22:23-22:23-  21494.6 62473mWRDholawad Road, Madhya Pradesh
17.38RTDRatlam A Cabin  22:26-22:26-  21498.3 62490mWRRatlam, Madhya Pradesh
17.39RTMRatlam Junction (7)XO  22:28-22:28-  21499.5 62495mWRRatlam, Madhya Pradesh
17.40RTLMRatlamX  22:28-22:28-  21499.6 62495mWRRatlam, Madhya Pradesh
17.41RTMERatlam East Cabin  22:31-22:31-  21502.6 62496mWRRatlam, Madhya Pradesh
17.42BODBangrodX  22:37-22:37-  21509.3 62484mWRRatlam, Madhya Pradesh
17.43RNHRunkheraO  22:44-22:44-  21516.7 62478mWRUjjain, Madhya Pradesh
17.44KUHKhachrod (2)X  22:54-22:54-  21527.1 62497mWRUjjain, Madhya Pradesh
17.45BRNABerawanya  23:00-23:00-  21532.8 62496mWRUjjain, Madhya Pradesh
17.46NADNagda Junction (4)XO  23:08-23:08-  21540.9 62468mWRNagda, Madhya Pradesh
17.47RLKRohal KhurdX  23:18-23:18-  21551.4 62499mWCRNagda, Madhya Pradesh
17.48MEPMahidpur Road  23:24-23:24-  21558.0 62493mWCRGogapur, Madhya Pradesh
17.49LNRLuni Richha  23:34-23:34-  21568.6 62471mWCRAlote, Madhya Pradesh
17.50VMAVikramgarh Alot (2)X  23:47-23:47-  21581.9 62443mWCRKota Division, Madhya Pradesh
17.51THURThuria  23:54-23:54-  21589.5 62430mWCRMDR 45, Madhya Pradesh
17.52TLZTalavli (2)  00:03-00:03-  31598.5 62442mWCRMDR 45, Madhya Pradesh
17.53CMUChau Mahla (3)  00:08-00:08-  31603.7 62426mWCRJhalawar, Rajasthan
17.54NKHNathukheri  00:18-00:18-  31613.4 62439mWCRMDR 45, Madhya Pradesh
17.55SVASuwasra (2)  00:23-00:23-  31619.1 62450mWCRSuwasra, Madhya Pradesh
17.56HNUHanspura  00:30-00:30-  31625.9 62476mWCRMandsaur, Madhya Pradesh
17.57SGZShamgarh (3)  00:36-00:36-  31632.5 62463mWCRMandsaur, Madhya Pradesh
17.58GOHGaroth (2)X  00:46-00:46-  31643.3 62441mWCRMadhya Pradesh 458880, Madhya Pradesh
17.59KRLSKurlasX  00:56-00:56-  31653.1 62417mWCRGarot, Madhya Pradesh
17.60BWMBhawani Mandi (3)X  01:08-01:08-  31666.0 62384mWCRBhawani Mandi, Madhya Pradesh
17.61DKRADhuankheri  01:18-01:18-  31676.1 62358mWCRBhawani Mandi, Madhya Pradesh
17.62JHWJhalawar Road (3)  01:24-01:24-  31682.5 62361mWCRJhalawar City, Rajasthan
17.63RMARamganj Mandi Junction (3)X  01:36-01:36-  31694.8 62358mWCRRamganj Mandi, Rajasthan
17.64MKXMorak (2)  01:45-01:45-  31703.9 62337mWCRMorak, Rajasthan
17.65KIWKanwalpuraO  01:51-01:51-  31709.8 62324mWCRNH 12, Rajasthan
17.66DARADara  01:59-01:59-  31718.6 62354mWCRDara, Rajasthan
17.67RDTRavtha Road  02:11-02:11-  31731.4 62366mWCRNational Highway 12, Rajasthan
17.68DKQDhani Kasar  02:18-02:18-  31737.7 62346mWCRKasar Railway Station, Rajasthan
17.69ALNIAlniya  02:23-02:23-  31743.3 62334mWCRNH 12, Rajasthan
17.70DDVDadhdevi  02:30-02:30-  31750.1 62308mWCRNH 12, Rajasthan
17.71DKNTDakaniya Talav (2)  02:36-02:36-  31756.8 62278mWCRKota, Rajasthan
17.72KTSCKota South Cabin  02:42-02:42-  31763.2 62256mWCRKota, Rajasthan
18KOTAKota Junction (5)  02:45+002:55+010m131766.159256mWCRKota, Rajasthan
18.1KCCNKota C Cabin  02:57-02:57-  31767.9 59246mWCRKota, Rajasthan
18.2GQLGurlaX  03:01-03:01-  31771.6 59251mWCRSH 33, Rajasthan
18.3GQLWGurla West  03:02-03:02-  31772.6 59249mWCRGurla, Rajasthan
18.4GQLNGurla North  03:03-03:03-  31773.6 59248mWCRKota - Lalsot Mega Highway, Rajasthan
18.5GNCNGurla N Cabin  03:03-03:03-  31774.4 59249mWCRGudla, Rajasthan
18.6KPTNKeshorai Patan  03:09-03:09-  31779.6 59243mWCRSH 33, Rajasthan
18.7AREArnethaX  03:20-03:20-  31790.6 59239mWCRShreepura, Rajasthan
18.8KPZKapren  03:29-03:29-  31799.7 59234mWCRKota - Lalsot Mega Highway, Rajasthan
18.9GKBGhataka VaranaX  03:39-03:39-  31809.8 59232mWCRSH 33, Rajasthan
18.10LBNLaban (2)X  03:49-03:49-  31819.1 59225mWCRBundi, Rajasthan
18.11LKELakheri (3)X  03:56-03:56-  31826.7 59228mWCRBundi, Rajasthan
18.12IDGIndargarh Sumerganj Mandi (2)O  04:08-04:08-  31837.7 59247mWCRIndargarh, Rajasthan
18.13AMLIAmli  04:21-04:21-  31850.8 59233mWCRSawai Madhopur, Rajasthan
18.14RWJRawania Dungar  04:29-04:29-  31858.4 59266mWCRSawai Madhopur, Rajasthan
18.15KTAKushtala  04:37-04:37-  31866.8 59283mWCRNH 116, Rajasthan
18.16SWMSawai Madhopur Junction (4)  04:44-04:44-  31873.9 59266mWCRSawai Madhopur, Rajasthan
18.17SMDCSwai Madhopur d Cabin  04:48-04:48-  31877.4 59261mWCRSawai Madhopur, Rajasthan
18.18RNTRanthambhoreX  04:55-04:55-  31884.1 59248mWCRMDR 111, Rajasthan
18.19MXLMokholi  05:04-05:04-  31893.3 59242mWCRMDR 111, Rajasthan
18.20MLZMalarna  05:15-05:15-  31904.1 59236mWCRSawai Madhopur, Rajasthan
18.21NMDNomodaXO  05:22-05:22-  31911.3 59238mWCRMDR 111, Rajasthan
18.22NNWNarayanpur Tatwara (2)  05:32-05:32-  31920.9 59256mWCRSawai Madhopur, Rajasthan
18.23LRULalpur Umri  05:43-05:43-  31931.5 59276mWCRSH 1, Rajasthan
18.24GGCGangapur City (3)  05:49-05:49-  31937.9 59270mWCRGangapur, Rajasthan
18.25COOChhoti Odai  06:02-06:02-  31950.6 59257mWCRSH 25, Rajasthan
18.26PDZPilioda  06:10-06:10-  31958.5 59247mWCRSH 1, Rajasthan
18.27KNDPKhandip  06:16-06:16-  31964.6 59245mWCRState Highway 1, Rajasthan
18.28SMBJShri Mahabirji (3)  06:24-06:24-  31971.9 59240mWCRKarauli, Rajasthan
18.29SKDMSikroda Mina  06:29-06:29-  31977.4 59233mWCRSH 22, Rajasthan
18.30HANHindaun City (2)O  06:34-06:34-  31982.1 59230mWCRKarauli, Rajasthan
18.31DNHKDhindora Hukmikhera  06:43-06:43-  31990.5 59223mWCRDhindhora, Rajasthan
18.32FSPFateh Singhpura  06:48-06:48-  31995.3 59223mWCRState Highway 1, Rajasthan
18.33DYDumariya (2)X  06:58-06:58-  32006.0 59211mWCRState Highway 1, Rajasthan
18.34BXNBayana Junction (3)O  07:07-07:07-  32015.0 59198mWCRBayana, Rajasthan
18.35SABDSalabad  07:16-07:16-  32023.0 59192mWCRBayana, Rajasthan
18.36KEVKela Devi  07:20-07:20-  32026.9 59193mWCRBharatpur, Rajasthan
18.37PNGRPingora  07:29-07:29-  32035.9 59191mWCRSH 1, Rajasthan
18.38JCUJaicholiX  07:34-07:34-  32041.3 59186mWCRSH 1, Rajasthan
18.39SWARSewar  07:40-07:40-  32047.2 59183mWCRBharatpur, Rajasthan
18.40BTEBharatpur Junction (5)  07:50-07:50-  32057.0 59174mWCRBharatpur, Rajasthan
18.41DUMDhaurmui Jaghina  07:58-07:58-  32065.3 59180mWCRState Highway 33, Rajasthan
18.42RKRRanikund Rarah  08:03-08:03-  32069.3 59176mWCRRarah, Rajasthan
18.43JJAJajan PattiX  08:07-08:07-  32073.2 59181mWCRState Highway 33, Rajasthan
18.44CRGChuraman NagriX  08:14-08:14-  32080.1 59180mWCRSH 33, Rajasthan
18.45MSRPMurhesi Rampur (2)  08:15-08:15-  32081.6 59182mWCRSH 33, Uttar Pradesh
18.46MTJMathura Junction (10)O  08:24-08:24-  32090.5 59179mNCRMathura, Uttar Pradesh
18.47BTSRBhuteshwar (3)X  08:27-08:27-  32093.2 59181mNCRMathura, Uttar Pradesh
18.48VRBDVrindaban Road (3)X  08:34-08:34-  32100.7 59179mNCRVrindaban, Uttar Pradesh
18.49AJHAjhai (2)X  08:46-08:46-  32111.6 59184mNCRAjhai, Uttar Pradesh
18.50CHJChata (4)X  08:56-08:56-  32121.7 59185mNCRChhata, Uttar Pradesh
18.51KSVKosi Kalan (3)X  09:06-09:06-  32132.0 59189mNCRKosi Kalan, Uttar Pradesh
18.52HDLHodal (4)O  09:19-09:19-  32144.2 59191mNCRFaridabad, Haryana
18.53BNCRBanchari (2)  09:26-09:26-  32151.4 59189mNCRNational Highway 2, Haryana
18.54SHLKSholaka (4)X  09:29-09:29-  32154.6 59191mNCRFaridabad, Haryana
18.55RDERundhi (4)X  09:40-09:40-  32165.1 59194mNCRRundhi, Haryana
18.56PWLPalwal (8)X  09:49-09:49-  32174.4 59200mNRPalwal, Haryana
18.57ASTAsaoti (5)  10:01-10:01-  32185.7 59203mNRAsaoti, Haryana
18.58PYLAPiyala Block HutXO  10:05-10:05-  32189.8 59200mNRLadholi - Shahpur Kalan - Sunped Road, Haryana
18.59BVHBallabgarh (5)  10:11-10:11-  32195.6 59203mNRFaridabad, Haryana
18.60FDNFaridabad New Town (3)  10:15-10:15-  32199.7 59204mNRFaridabad, Haryana
18.61FDBFaridabad (4)X  10:19-10:19-  32203.7 59206mNRFaridabad, Haryana
18.62TKDCTughlakabad Cabin  10:24-10:24-  32209.0 59210mNRFaridabad, Haryana
18.63TKDTuglakabad (4)  10:30-10:30-  32214.8 59213mNRNear Tughlakabad Metro Station, Delhi NCT
18.64TKECTuglakabad East CabinX  10:33-10:33-  32217.7 59214mNROkhla Indl Area II, Delhi NCT
18.65OKAOkhla (4)  10:36-10:36-  32220.8 59221mNRIshwar Nagar Mathura Road, Delhi NCT
19NZMDelhi Hazrat Nizamuddin (7)10:40+011:00+020m232224.535209mNRNizamuddin East/Sarai KaleKhan Bus Terminal, Delhi NCT
19.1PGMDPragati Maidan  11:04-11:04-  32226.6 35208mNRIP Estate, Delhi NCT
19.2ANVRAnand Vihar (2)X  11:17-11:17-  32234.6 35213mNRAnand Vihar, Delhi NCT
19.3ANVTDelhi Anand Vihar Terminal (3)X  11:18-11:18-  32234.9 35208mNRGhazipur Road, Delhi NCT
19.4CNJChander Nagar (2)  11:21-11:21-  32236.9 35206mNRSahibabad Industrial Area Site 4, Uttar Pradesh
19.5DSBPDelhi Shahdara B PanelX  11:24-11:24-  32238.3 35206mNRGhaziabad, Uttar Pradesh
19.6SBBSahibabad Junction (5)XO  11:28-11:28-  32240.6 35209mNRGhaziabad, Uttar Pradesh
20GZBGhaziabad Junction (6)  11:40+011:42+02m--32247.964217mNRGhaziabad, Uttar Pradesh
20.1GZNNew Ghaziabad (2)X  11:48-11:48-  32253.8 64213mNRGhaziabad, Uttar Pradesh
20.2GUHGuldhar (2)  11:51-11:51-  32257.6 64224mNRGhaziabad, Uttar Pradesh
20.3DXHDuhai Halt (2)  11:55-11:55-  32261.3 64219mNRGhaziabad, Uttar Pradesh
20.4MUDMuradnagar (2)X  11:58-11:58-  32265.5 64220mNRGhaziabad, Uttar Pradesh
20.5MDNRModinagar (2)  12:08-12:08-  32275.6 64221mNRGhaziabad, Uttar Pradesh
20.6MUZMohiuddinpur (2)  12:15-12:15-  32283.5 64222mNRMeerut, Uttar Pradesh
20.7PRTPPartapur (2)X  12:20-12:20-  32288.6 64223mNRMeerut, Uttar Pradesh
21MTCMeerut City Junction (6)XO  12:26+012:28+02m332295.161229mNRMeerut, Uttar Pradesh
21.1MUTMeerut Cantt. (2)  12:32-12:32-  32299.4 61230mNRMeerut, Uttar Pradesh
21.2PQYPabli Khas (1)  12:37-12:37-  32304.0 61229mNRMeerut, Uttar Pradesh
21.3DRLADaurala (1)  12:43-12:43-  32310.6 61232mNRMeerut, Uttar Pradesh
21.4SKFSakhoti Tanda (2)  12:52-12:52-  32319.4 61237mNRMeerut, Uttar Pradesh
21.5KATKhatauli (2)  13:01-13:01-  32328.5 61239mNRKhatauli, Uttar Pradesh
21.6MSPMansurpur (1)  13:10-13:10-  32337.8 61242mNRMuzaffarnagar, Uttar Pradesh
21.7JDWJarauda Nara (1)  13:18-13:18-  32346.0 61245mNRMuzaffarNagar, Uttar Pradesh
21.8MOZMuzaffarnagar (3)  13:23-13:23-  32350.7 61247mNRMuzaffarNagar, Uttar Pradesh
21.9BMHRBamanheri (2)X  13:28-13:28-  32355.7 61249mNRMuzaffarnagar, Uttar Pradesh
21.10RNARohana Kalan (2)  13:35-13:35-  32363.1 61251mNRMuzaffarnagar, Uttar Pradesh
21.11DBDDeoband (2)  13:47-13:47-  32374.7 61258mNRSaharanpur, Uttar Pradesh
21.12THJTalheri Buzurg (2)  13:57-13:57-  32384.8 61263mNRSH 59, Uttar Pradesh
21.13NGLNangal (2)X  14:04-14:04-  32392.3 61269mNRSaharanpur, Uttar Pradesh
21.14TPZTapri Junction (2)  14:14-14:14-  32402.4 61274mNRTapri -Saharanpur, Uttar Pradesh
21.15BAEBaliakheri  14:22-14:22-  32409.7 61274mNRSaharanpur, Uttar Pradesh
21.16SNKESunehti Kharkhari (2)  14:27-14:27-  32414.8 61216mNRSunehti Kharkhr, Uttar Pradesh
21.17CDLChodiala  14:32-14:32-  32420.4 61270mNRMDR 163W, Uttar Pradesh
21.18IQBIqbalpurX  14:39-14:39-  32427.0 61267mNRNational Highway 73, Uttar Pradesh
22RKRoorkee (3)  14:46+1:2014:48+1:212m132434.457264mNRRoorkee - 247667, Uttarakhand
22.1DNRADhandhera (2)  14:51-14:51-  32437.3 57267mNRRoorkee - 247667, Uttarakhand
22.2LDRLandaura (2)  14:56-14:56-  32442.3 57261mNRHaridwar, Uttarakhand
22.3DSNIDausni (2)X  15:01-15:01-  32447.2 57244mNRLaksar, Uttarakhand
22.4LRJCLaksar North Cabin  15:05-15:05-  32450.2 57238mNRMain Bazar Road, Uttarakhand
22.5LRJLaksar Junction (4)  15:07-15:07-  32452.2 57238mNRLaksar, Uttarakhand
22.6LRNCLrj North Cabin  15:10-15:10-  32455.4 57239mNRMuktarabad, Uttarakhand
22.7ATMOAithalX  15:14-15:14-  32459.6 57244mNRBaghwanpur Haridwar Rd, Uttarakhand
22.8PRIPathriX  15:21-15:21-  32465.7 57257mNRHaridwar, Uttarakhand
22.9IKKIkkar  15:26-15:26-  32470.5 57271mNRHaridwar, Uttarakhand
22.10JWPJwalapur  15:31-15:31-  32475.2 57292mNRHaridwar, Uttarakhand
23HWHaridwar Junction (9)X  15:35+016:00+025m232479.224294mNRHaridwar, Uttarakhand
23.1MOTCMotichur (1)  16:11-16:11-  32483.7 24312mNRHaridwar, Uttarakhand
23.2RWLRaiwala Junction (2)  16:28-16:28-  32490.3 24361mNRRishikesh, Uttarakhand
23.3QSRKansrao (1)  16:56-16:56-  32501.4 24415mNRDehradun, Uttarakhand
23.4DWODoiwalaX  17:20-17:20-  32511.0 24484mNRDehradun, Uttarakhand
23.5HRWHarrawala  17:48-17:48-  32522.0 24595mNRDehradun, Uttarakhand
24DDN•Dehradun (4)•  18:10+1:22-132530.9-648mNRDehradun, Uttarakhand
Scroll to Top
Scroll to Bottom